TimeCDT,TemperatureF,Dew PointF,Humidity,Sea Level PressureIn,VisibilityMPH,Wind Direction,Wind SpeedMPH,Gust SpeedMPH,PrecipitationIn,Events,Conditions,WindDirDegrees,DateUTC
12:53 AM,63.0,60.1,90,30.00,10.0,Calm,Calm,-,N/A,,Clear,0,2013-07-28 05:53:00
1:53 AM,64.0,60.1,87,29.99,10.0,Calm,Calm,-,N/A,,Mostly Cloudy,0,2013-07-28 06:53:00
2:53 AM,64.0,60.1,87,29.99,10.0,Calm,Calm,-,N/A,,Mostly Cloudy,0,2013-07-28 07:53:00
3:53 AM,64.0,61.0,90,29.98,10.0,Calm,Calm,-,N/A,,Overcast,0,2013-07-28 08:53:00
4:53 AM,64.9,61.0,87,29.99,10.0,Calm,Calm,-,N/A,,Mostly Cloudy,0,2013-07-28 09:53:00
5:53 AM,64.0,62.1,93,30.02,10.0,North,3.5,-,0.00,,Mostly Cloudy,350,2013-07-28 10:53:00
6:53 AM,64.0,61.0,90,30.01,10.0,Calm,Calm,-,N/A,,Partly Cloudy,0,2013-07-28 11:53:00
7:53 AM,64.9,61.0,87,30.03,7.0,Calm,Calm,-,N/A,,Partly Cloudy,0,2013-07-28 12:53:00
8:53 AM,66.0,62.1,87,30.04,10.0,Calm,Calm,-,N/A,,Scattered Clouds,0,2013-07-28 13:53:00
9:53 AM,68.0,61.0,78,30.02,10.0,ESE,5.8,-,N/A,,Clear,110,2013-07-28 14:53:00
10:53 AM,70.0,62.1,76,30.02,10.0,South,5.8,-,N/A,,Clear,170,2013-07-28 15:53:00
11:53 AM,73.0,62.1,68,30.02,10.0,SSW,4.6,-,N/A,,Clear,200,2013-07-28 16:53:00
12:53 PM,78.1,62.1,58,30.01,10.0,Variable,3.5,-,N/A,,Clear,0,2013-07-28 17:53:00
1:53 PM,79.0,61.0,54,30.02,10.0,Calm,Calm,-,N/A,,Clear,0,2013-07-28 18:53:00
2:53 PM,80.1,62.1,54,30.01,10.0,Variable,6.9,-,N/A,,Clear,0,2013-07-28 19:53:00
3:53 PM,78.1,62.1,58,30.01,10.0,North,8.1,-,N/A,,Clear,10,2013-07-28 20:53:00
4:53 PM,75.9,64.0,67,30.00,10.0,NNE,10.4,-,N/A,,Clear,30,2013-07-28 21:53:00
5:53 PM,75.0,63.0,66,30.00,10.0,NE,9.2,-,N/A,,Clear,40,2013-07-28 22:53:00
6:53 PM,73.0,63.0,71,30.02,10.0,ENE,9.2,-,N/A,,Clear,60,2013-07-28 23:53:00
7:53 PM,71.1,63.0,75,30.03,10.0,East,5.8,-,N/A,,Clear,80,2013-07-29 00:53:00
8:53 PM,71.1,62.1,73,30.02,10.0,ESE,5.8,-,N/A,,Clear,120,2013-07-29 01:53:00
9:53 PM,70.0,62.1,76,30.02,10.0,East,4.6,-,N/A,,Clear,90,2013-07-29 02:53:00
10:53 PM,70.0,63.0,78,30.03,10.0,Calm,Calm,-,N/A,,Clear,0,2013-07-29 03:53:00
11:53 PM,69.1,63.0,81,30.02,10.0,NE,3.5,-,N/A,,Clear,50,2013-07-29 04:53:00